Weather observations for the past three days for
Langley Air Force Base
| Date | Time (edt) | Wind (mph) | Vis. (mi.) | Weather | Sky Cond. | Temperature (ºF) | Relative Humidity | Wind Chill (°F) | Heat Index (°F) | Pressure | Precipitation (in) | ||||||
|---|---|---|---|---|---|---|---|---|---|---|---|---|---|---|---|---|---|
| Air | Dwpt | 6 hour | altimeter (in) | sea level (mb) | 1 hr | 3 hr | 6 hr | ||||||||||
| Max. | Min. | ||||||||||||||||
| 02 | 07:55 | Calm | 10.00 | A Few Clouds | FEW150 | 80.8 | 75.4 | 82.2 | 77 | 84% | 87 | 30.02 | 1017.2 | ||||
| 02 | 06:55 | SW 3 | 10.00 | A Few Clouds | FEW150 | 77.2 | 73.9 | 90% | 79 | 30.01 | 1016.9 | ||||||
| 02 | 05:55 | NE 7 | 10.00 | A Few Clouds | FEW080 | 78.3 | 73.9 | 87% | 81 | 30.02 | 1017.2 | ||||||
| 02 | 04:55 | SW 6 | 10.00 | A Few Clouds | FEW080 | 79.7 | 74.7 | 85% | 84 | 29.99 | 1016.2 | ||||||
| 02 | 03:55 | SW 8 | 10.00 | Partly Cloudy | SCT085 | 80.8 | 74.7 | 82% | 86 | 29.99 | 1016.2 | ||||||
| 02 | 02:55 | SW 8 | 10.00 | A Few Clouds | FEW085 | 81.3 | 74.8 | 81% | 87 | 30 | 1016.5 | ||||||
| 02 | 01:55 | SW 8 | 10.00 | Fair | CLR | 82 | 74.8 | 85.8 | 81.9 | 79% | 89 | 30 | 1016.5 | ||||
| 02 | 00:55 | S 8 | 10.00 | A Few Clouds | FEW250 | 82.9 | 74.8 | 77% | 90 | 30.01 | 1016.8 | ||||||
| 01 | 23:55 | S 8 | 10.00 | A Few Clouds | FEW250 | 84.2 | 74.5 | 73% | 92 | 29.99 | 1016.2 | ||||||
| 01 | 22:55 | SW 9 | 10.00 | A Few Clouds | FEW250 | 85.5 | 73.6 | 68% | 93 | 29.99 | 1016.2 | ||||||
| 01 | 21:55 | SW 6 | 10.00 | A Few Clouds | FEW250 | 85.5 | 73.6 | 68% | 93 | 29.98 | 1015.8 | ||||||
| 01 | 20:55 | S 3 | 10.00 | Partly Cloudy | SCT150 | 82 | 75.2 | 80% | 89 | 29.96 | 1015.2 | ||||||
| 01 | 19:55 | SE 5 | 10.00 | Partly Cloudy | SCT120 | 84.6 | 75.7 | 95.9 | 84.6 | 75% | 94 | 29.95 | 1014.8 | ||||
| 01 | 18:55 | SE 6 | 10.00 | Partly Cloudy | SCT120 | 88.9 | 74.1 | 62% | 98 | 29.97 | 1015.5 | ||||||
| 01 | 17:55 | E 8 | 10.00 | A Few Clouds | FEW250 | 90.1 | 72.3 | 56% | 98 | 29.97 | 1015.5 | ||||||
| 01 | 16:55 | E 9 | 10.00 | Partly Cloudy | FEW060 SCT120 | 95.9 | 72.3 | 47% | 105 | 29.98 | 1015.8 | ||||||
| 01 | 15:55 | E 6 | 10.00 | Mostly Cloudy | SCT060 BKN250 | 94.8 | 70 | 45% | 101 | 29.98 | 1015.8 | ||||||
| 01 | 14:55 | E 6 | 10.00 | A Few Clouds | FEW050 FEW250 | 93.6 | 71.4 | 49% | 101 | 29.99 | 1016.2 | ||||||
| 01 | 13:55 | SE 8 | 10.00 | A Few Clouds | FEW050 FEW250 | 91.9 | 71.8 | 92.5 | 79.7 | 52% | 99 | 30 | 1016.5 | ||||
| 01 | 12:55 | NE 6 | 10.00 | Partly Cloudy | FEW070 SCT120 | 92.3 | 73.2 | 54% | 101 | 30.01 | 1016.8 | ||||||
| 01 | 11:55 | E 6 | 10.00 | A Few Clouds | FEW250 | 89.8 | 72 | 56% | 97 | 30.03 | 1017.5 | ||||||
| 01 | 10:55 | NE 3 | 10.00 | Partly Cloudy | SCT170 | 88.7 | 72 | 58% | 96 | 30.05 | 1018.2 | ||||||
| 01 | 09:55 | W 5 | 10.00 | Partly Cloudy | SCT250 | 85.6 | 72.9 | 66% | 92 | 30.05 | 1018.2 | ||||||
| 01 | 08:55 | W 7 | 10.00 | Mostly Cloudy | BKN250 | 82.6 | 73.4 | 74% | 89 | 30.04 | 1017.9 | ||||||
| 01 | 07:55 | SW 7 | 10.00 | A Few Clouds | FEW250 | 79.5 | 73 | 79.7 | 76.3 | 81% | 83 | 30.04 | 1017.9 | ||||
| 01 | 06:55 | SW 7 | 10.00 | Fair | CLR | 76.8 | 72.9 | 88% | 78 | 30.03 | 1017.5 | ||||||
| 01 | 05:55 | SW 7 | 10.00 | A Few Clouds | FEW080 | 77.2 | 72.7 | 86% | 79 | 30.02 | 1017.2 | ||||||
| 01 | 04:55 | SW 8 | 10.00 | Fair | CLR | 77.5 | 73 | 86% | 79 | 30.03 | 1017.5 | ||||||
| 01 | 03:55 | SW 9 | 10.00 | A Few Clouds | FEW150 | 78.6 | 73 | 83% | 82 | 30.04 | 1017.9 | ||||||
| 01 | 02:55 | SW 10 | 10.00 | Partly Cloudy | SCT150 | 79.3 | 72.9 | 81% | 83 | 30.04 | 1017.9 | ||||||
| 01 | 01:55 | S 9 | 10.00 | Partly Cloudy | SCT140 | 79.2 | 73 | 81.1 | 77.4 | 82% | 83 | 30.06 | 1018.5 | 0.01 | |||
| 01 | 00:55 | S 5 | 10.00 | A Few Clouds | FEW140 | 78.8 | 73.2 | 83% | 82 | 30.07 | 1018.9 | ||||||
| 31 | 23:55 | S 7 | 10.00 | A Few Clouds | FEW200 | 78.6 | 73.4 | 84% | 82 | 30.06 | 1018.5 | ||||||
| 31 | 22:55 | Calm | 10.00 | Partly Cloudy | FEW070 SCT160 | 77.5 | 73.6 | 88% | 79 | 30.07 | 1018.9 | 0.01 | |||||
| 31 | 21:55 | Calm | 10.00 | Light Drizzle | SCT060 | 78.8 | 73.6 | 84% | 82 | 30.07 | 1018.9 | 0.01 | |||||
| 31 | 20:55 | Calm | 10.00 | Partly Cloudy | SCT050 SCT070 | 80.4 | 72.1 | 76% | 85 | 30.06 | 1018.6 | ||||||
| 31 | 19:03 | E 3 | 10.00 | A Few Clouds | FEW090 FEW170 | 83.1 | 71.4 | 93.6 | 76.8 | 68% | 88 | 30.05 | 1018.2 | ||||
| 31 | 15:55 | NW 15 G 22 | 3.00 | Thunderstorm Light Rain | BKN055 BKN070 | 86.2 | 70.2 | 59% | 91 | 30.06 | 1018.6 | ||||||
| 31 | 14:55 | Calm | 10.00 | Mostly Cloudy | SCT055 BKN070 | 93.4 | 69.4 | 46% | 99 | 30.04 | 1017.9 | ||||||
| 31 | 13:55 | E 8 | 10.00 | A Few Clouds | FEW040 | 91 | 70.3 | 91 | 78.6 | 51% | 97 | 30.06 | 1018.5 | ||||
| 31 | 12:55 | NE 9 | 10.00 | A Few Clouds | FEW040 | 90.1 | 73.2 | 58% | 99 | 30.07 | 1018.9 | ||||||
| 31 | 11:55 | Calm | 9.00 | A Few Clouds | FEW060 | 88.9 | 71.6 | 57% | 95 | 30.09 | 1019.6 | ||||||
| 31 | 10:55 | SW 7 | 10.00 | Fair | CLR | 86.5 | 70.9 | 60% | 92 | 30.09 | 1019.6 | ||||||
| 31 | 09:55 | SW 6 | 10.00 | A Few Clouds | FEW200 | 84.4 | 71.2 | 65% | 90 | 30.09 | 1019.6 | ||||||
| 31 | 08:55 | W 6 | 10.00 | Partly Cloudy | SCT100 | 82.2 | 72.1 | 72% | 87 | 30.08 | 1019.2 | ||||||
| 31 | 07:55 | SW 8 | 10.00 | Mostly Cloudy | BKN095 | 78.4 | 72.5 | 78.4 | 73.4 | 82% | 81 | 30.09 | 1019.6 | ||||
| 31 | 06:55 | S 5 | 10.00 | Partly Cloudy | FEW050 SCT250 | 74.7 | 71.8 | 91% | 30.09 | 1019.6 | |||||||
| 31 | 05:55 | SW 3 | 10.00 | Fair | CLR | 74.3 | 71.1 | 90% | 30.07 | 1018.9 | |||||||
| 31 | 04:55 | SW 3 | 10.00 | Fair | CLR | 74.3 | 70.9 | 89% | 30.07 | 1018.9 | |||||||
| 31 | 03:55 | SW 3 | 10.00 | Fair | CLR | 75.6 | 70.3 | 84% | 76 | 30.08 | 1019.2 | ||||||
| 31 | 02:55 | SW 6 | 10.00 | Fair | CLR | 75.6 | 71.1 | 86% | 76 | 30.08 | 1019.2 | ||||||
| 31 | 01:55 | SW 7 | 10.00 | Fair | CLR | 76.8 | 72.3 | 81.7 | 75.2 | 86% | 78 | 30.08 | 1019.2 | ||||
| 31 | 00:55 | SW 6 | 10.00 | Fair | CLR | 76.1 | 72 | 87% | 77 | 30.09 | 1019.6 | ||||||
| 30 | 23:55 | S 8 | 10.00 | Fair | CLR | 78.3 | 72.3 | 82% | 81 | 30.09 | 1019.6 | ||||||
| 30 | 22:55 | S 6 | 10.00 | Fair | CLR | 79 | 72.1 | 80% | 82 | 30.1 | 1019.9 | ||||||
| 30 | 21:55 | S 5 | 10.00 | Fair | CLR | 79.5 | 72.7 | 80% | 83 | 30.11 | 1020.2 | ||||||
| 30 | 20:55 | S 7 | 10.00 | Fair | CLR | 80.4 | 72.1 | 76% | 85 | 30.11 | 1020.2 | ||||||
| 30 | 19:55 | SE 7 | 10.00 | Fair | CLR | 81.7 | 72.1 | 86.2 | 81.7 | 73% | 86 | 30.1 | 1019.9 | ||||
| 30 | 18:55 | SE 7 | 10.00 | Fair | CLR | 83.7 | 72.3 | 69% | 89 | 30.1 | 1019.9 | ||||||
| 30 | 17:55 | E 12 | 10.00 | Fair | CLR | 84.2 | 72.5 | 68% | 90 | 30.1 | 1019.9 | ||||||
| 30 | 16:55 | E 13 | 10.00 | Fair | CLR | 84.6 | 72 | 66% | 90 | 30.1 | 1019.9 | ||||||
| 30 | 15:55 | E 13 | 10.00 | Fair | CLR | 85.8 | 72.1 | 64% | 92 | 30.11 | 1020.2 | ||||||
| 30 | 14:55 | E 9 | 10.00 | Fair | CLR | 84.9 | 73 | 68% | 92 | 30.13 | 1020.9 | ||||||
| 30 | 13:55 | E 6 | 10.00 | Fair | CLR | 86.2 | 72 | 87.4 | 76.6 | 63% | 92 | 30.14 | 1021.3 | ||||
| 30 | 12:55 | E 3 | 9.00 | Fair | CLR | 86.4 | 72.1 | 63% | 93 | 30.15 | 1021.6 | ||||||
| 30 | 11:55 | S 3 | 9.00 | Partly Cloudy | SCT024 SCT030 | 85.5 | 71.8 | 64% | 91 | 30.17 | 1022.3 | ||||||
| 30 | 10:55 | S 7 | 10.00 | Partly Cloudy | SCT022 SCT027 | 84 | 71.4 | 66% | 89 | 30.19 | 1023.0 | ||||||
| 30 | 09:55 | SE 6 | 10.00 | Light Rain | SCT018 SCT025 | 81.1 | 72 | 74% | 86 | 30.19 | 1023.0 | ||||||
| 30 | 08:55 | E 6 | 10.00 | Fair | CLR | 81.1 | 72 | 74% | 86 | 30.2 | 1023.3 | ||||||
| Date | Time (edt) | Wind (mph) | Vis. (mi.) | Weather | Sky Cond. | Air | Dwpt | Max. | Min. | Relative Humidity | Wind Chill (°F) | Heat Index (°F) | altimeter (in) | sea level (mb) | 1 hr | 3 hr | 6 hr |
| 6 hour | |||||||||||||||||
| Temperature (ºF) | Pressure | Precipitation (in) | |||||||||||||||